Tracking 35334 objects as of 12-Sep-2026
HD Live streaming from Space Station
objects crossing your sky now

PSLV DEB


PSLV DEB is no longer on orbit


NORAD ID: 27584
Int'l Code: 2001-049NC
Launch date: October 22, 2001
Source: India (IND)
Launch site: SRIHARIKOTA (SRI)
Decay date: 2004-03-22

Note: This is SATELLITE DEBRIS
Your satellite tracking list
Your tracking list is empty




NASA's NSSDC Master Catalog

Two Line Element Set (TLE):
1 27584U 01049NC  04072.81209466 +.00442858 +00000-0 +16397-2 0  9998
2 27584 097.6830 182.2084 0009488 057.3741 315.7790 15.87001885096899
Source of the keplerian elements: AFSPC